CW1767 Weather Reports


time (UTC)temp
C
wind
direction
speed
KPH
gust
KPH
rain 1hr
cm
rain 24hr
cm
rain mn
cm
humidity
%
barometer
mb
20260504201541 23 188 0.0 3.2 0.00 0.00 0.00 35 1011.5
20260504200048 23 119 0.0 4.8 0.00 0.00 0.00 34 1011.7
20260504194542 24 114 0.0 3.2 0.00 0.00 0.00 33 1011.9
20260504193035 24 136 0.0 6.4 0.00 0.00 0.00 33 1012.1
20260504191549 23 122 3.2 9.7 0.00 0.00 0.00 33 1012.3
20260504190033 25 111 0.0 3.2 0.00 0.00 0.00 33 1012.5
20260504184538 23 144 0.0 6.4 0.00 0.00 0.00 32 1012.6
20260504183040 24 119 0.0 1.6 0.00 0.00 0.00 31 1012.6
20260504181529 24 134 0.0 3.2 0.00 0.00 0.00 30 1012.9
20260504180029 24 114 0.0 4.8 0.00 0.00 0.00 31 1013.0
20260504174527 24 30 1.6 3.2 0.00 0.00 0.00 30 1013.0
20260504173027 24 115 0.0 4.8 0.00 0.00 0.00 32 1013.1
20260504171522 23 112 0.0 3.2 0.00 0.00 0.00 32 1013.3
20260504100106 9 123 0.0 0.0 0.00 0.00 0.00 86 1015.4
20260504081546 8 123 0.0 0.0 0.00 0.00 0.00 85 1016.5
20260504050023 6 123 0.0 0.0 0.00 0.00 0.00 77 1016.5
20260504044530 6 123 0.0 0.0 0.00 0.00 0.00 76 1016.4
20260504043026 6 123 0.0 0.0 0.00 0.00 0.00 76 1016.4
20260504041522 6 123 0.0 0.0 0.00 0.00 0.00 76 1016.4
20260504040017 6 123 0.0 0.0 0.00 0.00 0.00 76 1016.1
20260504034517 6 123 0.0 0.0 0.00 0.00 0.00 76 1016.0
20260504033015 6 123 0.0 0.0 0.00 0.00 0.00 75 1015.7
20260504031513 6 123 0.0 0.0 0.00 0.00 0.00 75 1015.8
20260504030030 6 123 0.0 0.0 0.00 0.00 0.00 73 1015.6
20260504024510 7 123 0.0 0.0 0.00 0.00 0.00 72 1015.6
20260504023008 7 123 0.0 0.0 0.00 0.00 0.00 71 1015.5
20260504021507 7 123 0.0 0.0 0.00 0.00 0.00 69 1015.6
20260504020007 7 123 0.0 0.0 0.00 0.00 0.00 66 1015.5
20260504014519 8 123 0.0 0.0 0.00 0.00 0.00 65 1015.4
20260504013006 8 123 0.0 0.0 0.00 0.00 0.00 63 1015.3
20260504011505 9 123 0.0 0.0 0.00 0.00 0.00 60 1015.2
20260504010006 10 123 0.0 0.0 0.00 0.00 0.00 59 1015.0
20260504004510 10 123 0.0 0.0 0.00 0.00 0.00 56 1015.0
20260504003014 11 123 0.0 0.0 0.00 0.00 0.00 53 1014.8
20260504001505 11 123 0.0 0.0 0.00 0.00 0.00 51 1014.4
20260504000004 12 123 0.0 0.0 0.00 0.00 0.00 46 1014.4
20260503234511 13 123 0.0 0.0 0.00 0.00 0.00 43 1014.3
20260503233004 14 123 0.0 0.0 0.00 0.00 0.00 41 1014.3
20260503231503 15 123 0.0 1.6 0.00 0.00 0.00 39 1014.4
20260503230002 15 124 0.0 1.6 0.00 0.00 0.00 39 1014.3
20260503224502 15 124 0.0 3.2 0.00 0.00 0.00 37 1014.3
20260503223002 15 138 0.0 9.7 0.00 0.00 0.00 38 1014.2
20260503221503 15 117 1.6 6.4 0.00 0.00 0.00 36 1014.3
20260503220000 15 117 1.6 12.9 0.00 0.00 0.00 36 1014.4
20260503214601 15 126 3.2 11.3 0.00 0.00 0.00 35 1014.1
20260503213109 15 123 1.6 9.7 0.00 0.00 0.00 36 1014.1
20260503211559 15 113 4.8 12.9 0.00 0.00 0.00 36 1014.1
20260503210111 15 111 3.2 9.7 0.00 0.00 0.00 37 1014.1
20260503204608 15 122 1.6 4.8 0.00 0.00 0.00 36 1013.9
20260503203104 14 142 3.2 12.9 0.00 0.00 0.00 36 1014.2